User: anonymous   Login
Location: Mentone
(34.5413°N, 85.5351°W)
Time: 12:21:54
(UTC-05:00)
Language:

Tiros 1 despin weight - Orbit

View from above orbital plane
View from above orbital plane
View from above satellite
View from above satellite

Ground track
Ground track

The orbit data is extracted from the following two-line orbital elements,

1 00115U 60002D   16178.50919508  .00000079  00000-0  36925-4 0  9990
2 00115  48.1676  52.5694 0035302 332.1686  27.7338 14.82817778997439
Epoch (UTC): 26 June 2016 12:13:14
Eccentricity: 0.0035302
inclination: 48.1676°
perigee height: 596 km
apogee height: 645 km
right ascension of ascending node: 52.5694°
argument of perigee: 332.1686°
revolutions per day: 14.82817778
mean anomaly at epoch: 27.7338°
orbit number at epoch: 99743

The dashed part of the orbit path shows where the satellite is in the earth's shadow,  

DLR